Hurlburt Field, FL

3:50 AM CDT on May 27, 2017 (GMT -0500)
Hurlburt

Weather History for KHRT - March, 2013

Change the Weather History Date:

Wednesday, March 6, 2013

  Actual Average Record
Temperature  
Mean Temperature 50 °F -  
Max Temperature 59 °F 65 °F 77 °F (2003)
Min Temperature 41 °F 47 °F 30 °F (2015)
Degree Days  
Heating Degree Days 15    
Moisture  
Dew Point 33 °F    
Average Humidity 53    
Maximum Humidity 82    
Minimum Humidity 36    
Precipitation  
Precipitation 0.00 in - - ()
Sea Level Pressure  
Sea Level Pressure 30.19 in    
Wind  
Wind Speed 12 mph (NNW)    
Max Wind Speed 23 mph    
Max Gust Speed 28 mph    
Visibility 10 miles    
Events      
Averages and records for this station are not official NWS values.
T = Trace of Precipitation, MM = Missing Value Source: NWS Daily Summary

Daily Weather History Graph

Daily Weather History Graph

Search for Another Location

Airport or City:

Trip Planner

Search our weather history database for the weather conditions in past years. The results will help you decide how hot, cold, wet, or windy it might be!

Date:

Astronomy

Mar. 06, 2013 Rise Set
Actual Time 6:07 AM CST 5:49 PM CST
Civil Twilight 5:42 AM CST 6:13 PM CST
Nautical Twilight 5:15 AM CST 6:41 PM CST
Astronomical Twilight 4:47 AM CST 7:09 PM CST
Moon 1:58 AM CST (3/6) 12:47 PM CST (3/6)
Length of Visible Light 12h 30m
Length of Day
11h 42m
Waning Crescent, 29% of the Moon is Illuminated
Mar 6
Waning Crescent
Mar 11
New
Mar 19
First Quarter
Mar 27
Full
Apr 2
Last Quarter

Hourly Weather History & Observations

Time (CST) Temp. Windchill Dew Point Humidity Pressure Visibility Wind Dir Wind Speed Gust Speed Precip Events Conditions
12:58 AM 46.8 °F - 41.0 °F 80% 30.13 in 10.0 mi NNW 5.8 mph - N/A   Clear
1:58 AM 45.7 °F 41.0 °F 40.5 °F 82% 30.12 in 10.0 mi NNW 9.2 mph - N/A   Clear
2:58 AM 45.5 °F 39.6 °F 39.2 °F 79% 30.12 in 10.0 mi NNW 12.7 mph - N/A   Clear
3:58 AM 45.0 °F 39.7 °F 35.8 °F 70% 30.15 in 10.0 mi NNW 10.4 mph - N/A   Clear
4:58 AM 43.9 °F 37.5 °F 33.3 °F 66% 30.18 in 10.0 mi NNW 12.7 mph 21.9 mph N/A   Clear
5:58 AM 41.7 °F 35.2 °F 31.8 °F 68% 30.20 in 10.0 mi NNW 11.5 mph - N/A   Clear
6:58 AM 42.6 °F 35.6 °F 30.2 °F 61% 30.23 in 10.0 mi NNW 13.8 mph - N/A   Clear
7:58 AM 45.0 °F 37.9 °F 30.0 °F 56% 30.23 in 10.0 mi NNW 16.1 mph 25.3 mph N/A   Clear
8:58 AM 48.6 °F - 29.1 °F 47% 30.23 in 10.0 mi North 20.7 mph 23.0 mph N/A   Clear
9:58 AM 50.5 °F - 27.5 °F 41% 30.23 in 10.0 mi NW 17.3 mph 24.2 mph N/A   Clear
10:58 AM 53.6 °F - 29.3 °F 39% 30.22 in 10.0 mi North 16.1 mph 21.9 mph N/A   Clear
11:02 AM 53.6 °F - 30.2 °F 41% 30.21 in 10.0 mi NW 15.0 mph 23.0 mph N/A   Clear
11:58 AM 57.0 °F - 31.1 °F 37% 30.19 in 10.0 mi NNW 17.3 mph 24.2 mph N/A   Clear
12:17 PM 57.2 °F - 32.0 °F 38% 30.17 in 10.0 mi North 15.0 mph 25.3 mph N/A   Clear
12:58 PM 58.3 °F - 31.8 °F 37% 30.17 in 10.0 mi NNW 18.4 mph 27.6 mph N/A   Clear
1:07 PM 59.0 °F - 32.0 °F 36% 30.15 in 10.0 mi North 17.3 mph 24.2 mph N/A   Clear
1:30 PM 59.0 °F - 32.0 °F 36% 30.15 in 10.0 mi NNW 13.8 mph 21.9 mph N/A   Clear
1:38 PM 59.0 °F - 32.0 °F 36% 30.14 in 10.0 mi NW 16.1 mph 21.9 mph N/A   Clear
1:39 PM 59.0 °F - 32.0 °F 36% 30.14 in 10.0 mi NW 15.0 mph 21.9 mph N/A   Clear
1:58 PM 59.2 °F - 33.3 °F 38% 30.15 in 10.0 mi NW 17.3 mph 26.5 mph N/A   Clear
2:41 PM 59.0 °F - 32.0 °F 36% 30.14 in 10.0 mi NW 16.1 mph 21.9 mph N/A   Clear
2:58 PM 59.5 °F - 33.6 °F 38% 30.15 in 10.0 mi NNW 23.0 mph 27.6 mph N/A   Clear
3:58 PM 58.6 °F - 32.9 °F 38% 30.15 in 10.0 mi NNW 10.4 mph - N/A   Clear
4:58 PM 56.5 °F - 33.4 °F 42% 30.16 in 10.0 mi North 12.7 mph - N/A   Clear
5:58 PM 52.5 °F - 33.6 °F 49% 30.18 in 10.0 mi North 11.5 mph - N/A   Clear
6:58 PM 50.0 °F - 33.8 °F 54% 30.21 in 10.0 mi North 8.1 mph - N/A   Clear
7:58 PM 45.7 °F 41.5 °F 34.3 °F 65% 30.23 in 10.0 mi North 8.1 mph - N/A   Clear
8:58 PM 43.3 °F 39.2 °F 34.3 °F 71% 30.24 in 10.0 mi North 6.9 mph - N/A   Clear
9:58 PM 42.8 °F 38.6 °F 33.6 °F 70% 30.26 in 10.0 mi North 6.9 mph - N/A   Clear
10:58 PM 41.0 °F 38.0 °F 33.4 °F 74% 30.26 in 10.0 mi North 4.6 mph - N/A   Clear
11:58 PM 41.7 °F 38.0 °F 32.7 °F 70% 30.26 in 10.0 mi NNW 5.8 mph - N/A   Clear